Погода в Рече

Польша     53°15′15″N   15°33′11″E
темп.,
°C
ветер,
м/с
пор.,
м/с
влажн.,
%
обл.,
%
осадки,
мм/ч
давл.,
гПа
погр.,
м
1 марта, пн
пн101:00+1зсз229512 0.0 103524
04:000з229711 0.0 103431
07:000з229711 0.0 103525
10:00+5з348521 0.0 1035282
13:00+9зюз346912 0.0 1035497
16:00+9з35730 0.0 1034518
19:00+5з23870 0.0 103426
22:00+4з23910 0.0 103438
2 марта, вт
вт201:00+3з23900 0.0 103432
04:00+2зсз33890 0.0 103357
07:00+1з33900 0.0 103452
10:00+6зсз35800 0.0 1033279
13:00+10зсз35590 0.0 1034539
16:00+10сз35640 0.0 1032558
19:00+5ссз23820 0.0 103322
22:00+3ссв12880 0.0 103322
3 марта, ср
ср301:00+2вюв11880 0.0 103322
04:00+1ююв11890 0.0 103122
07:00+1ю12890 0.0 103122
10:00+6ю23700 0.0 1030259
13:00+10ююз24560 0.0 1028522
16:00+11ююз24640 0.0 1024327
19:00+6юз34790 0.0 102344
22:00+4зюз35850 0.0 102191
4 марта, чт
чт401:00+3з379213 0.0 1019149
04:00+3з38950 0.0 1017161
07:00+2з37986 0.0 1016181
10:00+5зсз468148 0.0 1015453
13:00+7зсз466573 0.0 1014823
16:00+6ссз4572100 0.0 1013808
19:00+4с3678100 0.0 1013487
22:00+3с3585100 0.0 1013352
5 марта, пт
пт501:00+1св71094100 0.3 1013484
04:00−1св5890100 0.4 1014663
07:00−1ссв4108097 0.4 1016571
10:00+2ссв685716 0.0 10181417
13:00+4с574741 0.1 10201847
16:00+2с685353 0.3 10211625
19:00−2с496433 0.3 1024344
22:00−2сз26660 0.0 1027176